Location: Newark
(31.1622°N, 59.7161°E)
Time: 23:26:23
(UTC+00:00)

N. Korean satellite - Visible Passes

Search period start: 13 October 2019 00:00
Search period end: 23 October 2019 00:00
Orbit: 455 x 508 km, 97.2° (Epoch: 13 October)

Date Brightness Start Highest point End Pass type
(mag) Time Alt. Az. Time Alt. Az. Time Alt. Az.
13 Oct 7.9 01:34:06 10° NNE 01:37:34 47° E 01:41:03 10° S visible
14 Oct 9.6 01:09:30 10° NE 01:12:14 20° E 01:14:59 10° SE visible
16 Oct 9.5 13:55:51 10° SSW 13:58:33 22° W 14:01:15 10° NW visible
17 Oct 8.5 01:26:27 10° NNE 01:29:48 36° E 01:33:12 10° SSE visible
18 Oct 10.0 01:02:05 10° NE 01:04:27 16° E 01:06:49 10° SE visible
19 Oct 10.3 14:14:39 10° WSW 14:16:06 12° W 14:17:34 10° WNW visible
20 Oct 9.0 13:47:44 10° SSW 13:50:42 28° W 13:53:41 10° NW visible
21 Oct 9.0 01:18:48 10° NE 01:22:00 28° E 01:25:13 10° SSE visible
22 Oct 10.3 00:54:49 10° ENE 00:56:36 13° E 00:58:25 10° SE visible
